EZY47TM EGGD-LXGB

Flight info

Callsign EZY47TM
Flight time 2h 27m
Altitude 36000
Route EXMOR N92 DAWLY N864 BHD DCT SALCO DCT NOVAN/N0441F370 DCT DELOG DCT CRISA DCT VULPE DCT MAR N864 PIMOS
Aircraft A320/M-SDE3FGHIRWY/LB1

Departure

Time 2026-04-30 11:30
Airport Bristol Airport (EGGD)

Arrival

Time 2026-04-30 13:57
Airport Gibraltar Airport (LXGB)
Time Latitude Longitude Altitude Speed Heading
2026-04-30 10:46 51.38521 -2.72114 607 ft 0 kts 284°
2026-04-30 11:20 51.38520 -2.72108 607 ft 3 kts 284°
2026-04-30 11:20 51.38515 -2.72074 619 ft 3 kts 285°
2026-04-30 11:20 51.38503 -2.72040 615 ft 4 kts 329°
2026-04-30 11:21 51.38481 -2.72027 610 ft 2 kts 356°
2026-04-30 11:21 51.38458 -2.72023 620 ft 4 kts 340°
2026-04-30 11:21 51.38437 -2.72002 614 ft 4 kts 297°
2026-04-30 11:21 51.38433 -2.71966 618 ft 2 kts 272°
2026-04-30 11:22 51.38432 -2.71963 618 ft 0 kts 272°
2026-04-30 11:23 51.38433 -2.71964 606 ft 1 kts 272°
2026-04-30 11:24 51.38433 -2.71997 610 ft 5 kts 270°
2026-04-30 11:24 51.38431 -2.72081 605 ft 10 kts 266°
2026-04-30 11:24 51.38426 -2.72189 611 ft 9 kts 266°
2026-04-30 11:25 51.38418 -2.72406 611 ft 11 kts 266°
2026-04-30 11:25 51.38413 -2.72536 611 ft 14 kts 266°
2026-04-30 11:25 51.38398 -2.72888 606 ft 18 kts 266°
2026-04-30 11:26 51.38384 -2.73236 611 ft 12 kts 260°
2026-04-30 11:26 51.38340 -2.73328 625 ft 8 kts 209°
2026-04-30 11:26 51.38309 -2.73342 617 ft 2 kts 186°
2026-04-30 11:27 51.38289 -2.73342 618 ft 7 kts 179°
2026-04-30 11:27 51.38251 -2.73331 621 ft 6 kts 163°
2026-04-30 11:27 51.38221 -2.73306 626 ft 3 kts 137°
2026-04-30 11:27 51.38216 -2.73261 623 ft 0 kts 88°
2026-04-30 11:29 51.38216 -2.73260 623 ft 1 kts 88°
2026-04-30 11:29 51.38223 -2.73029 636 ft 56 kts 86°
2026-04-30 11:29 51.38319 -2.70453 940 ft 148 kts 90°
2026-04-30 11:30 51.38411 -2.67122 2332 ft 160 kts 89°
2026-04-30 11:30 51.38469 -2.65219 2653 ft 183 kts 91°
2026-04-30 11:30 51.38534 -2.63043 3054 ft 209 kts 91°
2026-04-30 11:31 51.38606 -2.60595 3544 ft 231 kts 92°
2026-04-30 11:31 51.38684 -2.57964 4326 ft 240 kts 94°
2026-04-30 11:31 51.38418 -2.55337 5142 ft 241 kts 115°
2026-04-30 11:31 51.37490 -2.53102 5921 ft 245 kts 138°
2026-04-30 11:32 51.36023 -2.51688 6705 ft 251 kts 161°
2026-04-30 11:32 51.34280 -2.51408 7493 ft 259 kts 185°
2026-04-30 11:32 51.32562 -2.52407 8301 ft 271 kts 210°
2026-04-30 11:33 51.30752 -2.57806 9886 ft 300 kts 262°
2026-04-30 11:33 51.30585 -2.61163 10494 ft 310 kts 257°
2026-04-30 11:33 51.30157 -2.64657 10725 ft 332 kts 254°
2026-04-30 11:33 51.29681 -2.68361 11154 ft 345 kts 254°
2026-04-30 11:34 51.29191 -2.72146 11815 ft 351 kts 253°
2026-04-30 11:34 51.28785 -2.76028 12492 ft 359 kts 260°
2026-04-30 11:34 51.28664 -2.80052 13186 ft 367 kts 265°
2026-04-30 11:34 51.28728 -2.84160 13867 ft 373 kts 269°
2026-04-30 11:35 51.28881 -2.88322 14493 ft 378 kts 269°
2026-04-30 11:35 51.29050 -2.92535 15100 ft 382 kts 269°
2026-04-30 11:35 51.29198 -2.96792 15711 ft 385 kts 268°
2026-04-30 11:35 51.29158 -3.01064 16299 ft 383 kts 255°
2026-04-30 11:36 51.28436 -3.05114 16888 ft 377 kts 241°
2026-04-30 11:36 51.27276 -3.08787 17485 ft 374 kts 233°
2026-04-30 11:36 51.25909 -3.12327 18097 ft 376 kts 231°
2026-04-30 11:36 51.24502 -3.15862 18657 ft 379 kts 231°
2026-04-30 11:37 51.23130 -3.19484 19202 ft 384 kts 233°
2026-04-30 11:37 51.21819 -3.23218 19730 ft 388 kts 235°
2026-04-30 11:37 51.20550 -3.27034 20275 ft 390 kts 233°
2026-04-30 11:37 51.19018 -3.30562 20793 ft 384 kts 222°
2026-04-30 11:38 51.17095 -3.33455 21341 ft 378 kts 211°
2026-04-30 11:38 51.14851 -3.35564 21852 ft 373 kts 199°
2026-04-30 11:38 51.12399 -3.36837 22384 ft 370 kts 187°
2026-04-30 11:38 51.09853 -3.37365 22881 ft 370 kts 182°
2026-04-30 11:39 51.07276 -3.37787 23402 ft 373 kts 182°
2026-04-30 11:39 51.04687 -3.38230 23866 ft 376 kts 182°
2026-04-30 11:39 51.02075 -3.38687 24264 ft 379 kts 183°
2026-04-30 11:39 50.99447 -3.39149 24651 ft 382 kts 183°
2026-04-30 11:40 50.96801 -3.39617 25032 ft 384 kts 183°
2026-04-30 11:40 50.94132 -3.40086 25401 ft 387 kts 183°
2026-04-30 11:40 50.91449 -3.40557 25772 ft 389 kts 183°
2026-04-30 11:40 50.88749 -3.41027 26140 ft 392 kts 183°
2026-04-30 11:41 50.86029 -3.41495 26503 ft 394 kts 183°
2026-04-30 11:41 50.83294 -3.41964 26873 ft 397 kts 183°
2026-04-30 11:41 50.80534 -3.42433 27190 ft 400 kts 184°
2026-04-30 11:41 50.77754 -3.42907 27502 ft 403 kts 184°
2026-04-30 11:42 50.74953 -3.43387 27841 ft 406 kts 184°
2026-04-30 11:42 50.72142 -3.43870 28180 ft 408 kts 184°
2026-04-30 11:42 50.69314 -3.44360 28522 ft 410 kts 184°
2026-04-30 11:42 50.66466 -3.44854 28847 ft 412 kts 184°
2026-04-30 11:43 50.63613 -3.45347 29162 ft 414 kts 184°
2026-04-30 11:43 50.60735 -3.45840 29480 ft 416 kts 184°
2026-04-30 11:43 50.57848 -3.46331 29797 ft 418 kts 184°
2026-04-30 11:43 50.54986 -3.46816 30105 ft 420 kts 184°
2026-04-30 11:44 50.52040 -3.47314 30377 ft 421 kts 184°
2026-04-30 11:44 50.49159 -3.47803 30628 ft 423 kts 184°
2026-04-30 11:44 50.46230 -3.48299 30870 ft 424 kts 184°
2026-04-30 11:44 50.43301 -3.48794 31104 ft 425 kts 184°
2026-04-30 11:45 50.40357 -3.49290 31339 ft 426 kts 184°
2026-04-30 11:45 50.37403 -3.49683 31628 ft 424 kts 181°
2026-04-30 11:45 50.34465 -3.49911 31987 ft 421 kts 179°
2026-04-30 11:45 50.31541 -3.50030 32350 ft 419 kts 179°
2026-04-30 11:46 50.28633 -3.50105 32683 ft 417 kts 179°
2026-04-30 11:46 50.25730 -3.50186 33007 ft 416 kts 179°
2026-04-30 11:46 50.22844 -3.50291 33327 ft 415 kts 179°
2026-04-30 11:46 50.19957 -3.50426 33641 ft 414 kts 179°
2026-04-30 11:47 50.17082 -3.50583 33957 ft 413 kts 179°
2026-04-30 11:47 50.14219 -3.50750 34257 ft 412 kts 180°
2026-04-30 11:47 50.11354 -3.50920 34514 ft 412 kts 180°
2026-04-30 11:47 50.08490 -3.51087 34729 ft 412 kts 180°
2026-04-30 11:48 50.05618 -3.51248 34939 ft 412 kts 180°
2026-04-30 11:48 50.02749 -3.51403 35137 ft 413 kts 180°
2026-04-30 11:48 49.99878 -3.51556 35329 ft 413 kts 180°
2026-04-30 11:48 49.97037 -3.51708 35513 ft 414 kts 180°
2026-04-30 11:49 49.94161 -3.51862 35701 ft 414 kts 180°
2026-04-30 11:49 49.91277 -3.52016 35875 ft 415 kts 180°
2026-04-30 11:49 49.88391 -3.52171 36042 ft 415 kts 180°
2026-04-30 11:49 49.85499 -3.52324 36203 ft 416 kts 180°
2026-04-30 11:50 49.82606 -3.52479 36376 ft 417 kts 180°
2026-04-30 11:50 49.79703 -3.52636 36533 ft 417 kts 180°
2026-04-30 11:50 49.76795 -3.52792 36695 ft 417 kts 180°
2026-04-30 11:50 49.73896 -3.52949 36854 ft 418 kts 181°
2026-04-30 11:51 49.70988 -3.53104 37024 ft 418 kts 181°
2026-04-30 11:51 49.68082 -3.53258 37090 ft 418 kts 181°
2026-04-30 11:51 49.62267 -3.53563 37087 ft 418 kts 181°
2026-04-30 11:52 49.56455 -3.53870 37089 ft 418 kts 181°
2026-04-30 11:52 49.50643 -3.54180 37081 ft 418 kts 181°
2026-04-30 11:53 49.44864 -3.54475 37079 ft 418 kts 181°
2026-04-30 11:53 49.39049 -3.54778 37081 ft 419 kts 181°
2026-04-30 11:54 49.33224 -3.55088 37079 ft 419 kts 181°
2026-04-30 11:54 49.27392 -3.55397 37095 ft 419 kts 181°
2026-04-30 11:55 49.21568 -3.55698 37090 ft 419 kts 181°
2026-04-30 11:55 49.15746 -3.55995 37087 ft 419 kts 181°
2026-04-30 11:56 49.10905 -3.56247 37082 ft 419 kts 181°
2026-04-30 11:56 49.05081 -3.56544 37074 ft 419 kts 181°
2026-04-30 11:57 48.99260 -3.56851 37059 ft 419 kts 181°
2026-04-30 11:57 48.93435 -3.57147 37050 ft 419 kts 181°
2026-04-30 11:58 48.87608 -3.57444 37042 ft 418 kts 181°
2026-04-30 11:58 48.81789 -3.57744 37037 ft 418 kts 181°
2026-04-30 11:59 48.75968 -3.58045 37033 ft 418 kts 181°
2026-04-30 11:59 48.70147 -3.58338 37034 ft 419 kts 181°
2026-04-30 12:00 48.64362 -3.58627 37036 ft 419 kts 181°
2026-04-30 12:00 48.58536 -3.58929 37030 ft 419 kts 181°
2026-04-30 12:01 48.52698 -3.59228 37037 ft 419 kts 181°
2026-04-30 12:01 48.46864 -3.59525 37041 ft 420 kts 181°
2026-04-30 12:02 48.41032 -3.59821 37042 ft 420 kts 181°
2026-04-30 12:02 48.35194 -3.60108 37044 ft 420 kts 181°
2026-04-30 12:03 48.26435 -3.60539 37040 ft 420 kts 181°
2026-04-30 12:04 48.20604 -3.60827 37042 ft 420 kts 181°
2026-04-30 12:04 48.14766 -3.61123 37047 ft 419 kts 181°
2026-04-30 12:05 48.08931 -3.61417 37042 ft 420 kts 181°
2026-04-30 12:05 48.03096 -3.61714 37045 ft 420 kts 181°
2026-04-30 12:06 47.97294 -3.62004 37046 ft 420 kts 181°
2026-04-30 12:06 47.91447 -3.62290 37038 ft 420 kts 181°
2026-04-30 12:07 47.85601 -3.62577 37043 ft 421 kts 181°
2026-04-30 12:07 47.79742 -3.62866 37047 ft 421 kts 181°
2026-04-30 12:08 47.73878 -3.63148 37055 ft 422 kts 181°
2026-04-30 12:08 47.68009 -3.63430 37049 ft 422 kts 181°
2026-04-30 12:09 47.62136 -3.63721 37047 ft 422 kts 181°
2026-04-30 12:09 47.56257 -3.64015 37048 ft 422 kts 181°
2026-04-30 12:10 47.50381 -3.64301 37046 ft 423 kts 181°
2026-04-30 12:10 47.44538 -3.64580 37045 ft 423 kts 181°
2026-04-30 12:11 47.38652 -3.64869 37049 ft 423 kts 181°
2026-04-30 12:11 47.32760 -3.65155 37050 ft 424 kts 181°
2026-04-30 12:12 47.26855 -3.65440 37044 ft 424 kts 182°
2026-04-30 12:12 47.20946 -3.65723 37049 ft 425 kts 182°
2026-04-30 12:13 47.15026 -3.66011 37051 ft 426 kts 182°
2026-04-30 12:13 47.09105 -3.66290 37050 ft 426 kts 182°
2026-04-30 12:14 47.03172 -3.66562 37056 ft 427 kts 182°
2026-04-30 12:14 46.97236 -3.66843 37059 ft 427 kts 182°
2026-04-30 12:15 46.91291 -3.67128 37069 ft 427 kts 182°
2026-04-30 12:15 46.85341 -3.67412 37056 ft 428 kts 182°
2026-04-30 12:16 46.79371 -3.67702 37057 ft 429 kts 182°
2026-04-30 12:16 46.73432 -3.67988 37062 ft 430 kts 182°
2026-04-30 12:17 46.64448 -3.68402 37066 ft 431 kts 182°
2026-04-30 12:17 46.58457 -3.68682 37073 ft 431 kts 182°
2026-04-30 12:18 46.52454 -3.68966 37080 ft 431 kts 182°
2026-04-30 12:18 46.46448 -3.69243 37077 ft 432 kts 182°
2026-04-30 12:19 46.40444 -3.69532 37079 ft 432 kts 182°
2026-04-30 12:19 46.34425 -3.69810 37085 ft 432 kts 182°
2026-04-30 12:20 46.28416 -3.70281 37077 ft 432 kts 186°
2026-04-30 12:20 46.22430 -3.71229 37075 ft 433 kts 188°
2026-04-30 12:21 46.16484 -3.72252 37078 ft 433 kts 187°
2026-04-30 12:21 46.10483 -3.73191 37072 ft 434 kts 187°
2026-04-30 12:22 46.04474 -3.74082 37076 ft 435 kts 187°
2026-04-30 12:22 45.98452 -3.74950 37080 ft 435 kts 187°
2026-04-30 12:23 45.92423 -3.75836 37087 ft 436 kts 187°
2026-04-30 12:23 45.86386 -3.76728 37080 ft 436 kts 187°
2026-04-30 12:24 45.80340 -3.77624 37082 ft 437 kts 187°
2026-04-30 12:24 45.74281 -3.78508 37084 ft 438 kts 187°
2026-04-30 12:25 45.68220 -3.79396 37080 ft 438 kts 187°
2026-04-30 12:25 45.62146 -3.80295 37083 ft 439 kts 187°
2026-04-30 12:26 45.56102 -3.81177 37087 ft 440 kts 187°
2026-04-30 12:26 45.50011 -3.82058 37085 ft 440 kts 187°
2026-04-30 12:27 45.43874 -3.82949 37091 ft 441 kts 187°
2026-04-30 12:27 45.37810 -3.83831 37096 ft 441 kts 187°
2026-04-30 12:28 45.31660 -3.84720 37093 ft 441 kts 188°
2026-04-30 12:28 45.25586 -3.85595 37092 ft 442 kts 188°
2026-04-30 12:29 45.19464 -3.86476 37099 ft 441 kts 188°
2026-04-30 12:29 45.13357 -3.87356 37110 ft 441 kts 188°
2026-04-30 12:30 45.07290 -3.88220 37111 ft 440 kts 188°
2026-04-30 12:30 45.01199 -3.89091 37113 ft 440 kts 188°
2026-04-30 12:31 44.95119 -3.89972 37115 ft 439 kts 188°
2026-04-30 12:31 44.89033 -3.90838 37110 ft 439 kts 188°
2026-04-30 12:32 44.82952 -3.91699 37114 ft 439 kts 188°
2026-04-30 12:32 44.76875 -3.92565 37117 ft 439 kts 188°
2026-04-30 12:33 44.70796 -3.93426 37112 ft 438 kts 188°
2026-04-30 12:33 44.64720 -3.94277 37118 ft 438 kts 188°
2026-04-30 12:34 44.58692 -3.95129 37114 ft 438 kts 188°
2026-04-30 12:34 44.52618 -3.95986 37106 ft 438 kts 189°
2026-04-30 12:35 44.46556 -3.96838 37115 ft 437 kts 189°
2026-04-30 12:35 44.40501 -3.97685 37116 ft 437 kts 189°
2026-04-30 12:36 44.34442 -3.98530 37112 ft 437 kts 189°
2026-04-30 12:36 44.28380 -3.99323 37118 ft 438 kts 188°
2026-04-30 12:37 44.22306 -3.99994 37120 ft 438 kts 188°
2026-04-30 12:37 44.16230 -4.00648 37121 ft 438 kts 188°
2026-04-30 12:38 44.10157 -4.01331 37113 ft 437 kts 188°
2026-04-30 12:38 44.04098 -4.02037 37117 ft 437 kts 188°
2026-04-30 12:39 43.98040 -4.02731 37115 ft 437 kts 188°
2026-04-30 12:39 43.91975 -4.03415 37110 ft 436 kts 189°
2026-04-30 12:40 43.85928 -4.04101 37116 ft 436 kts 189°
2026-04-30 12:40 43.79874 -4.04787 37121 ft 436 kts 189°
2026-04-30 12:41 43.73830 -4.05464 37117 ft 436 kts 189°
2026-04-30 12:41 43.67790 -4.06143 37120 ft 435 kts 189°
2026-04-30 12:42 43.61759 -4.06824 37117 ft 434 kts 189°
2026-04-30 12:42 43.55777 -4.07490 37088 ft 434 kts 189°
2026-04-30 12:43 43.49759 -4.08161 37095 ft 434 kts 189°
2026-04-30 12:43 43.43740 -4.08845 37100 ft 434 kts 189°
2026-04-30 12:44 43.38701 -4.09409 37106 ft 433 kts 189°
2026-04-30 12:44 43.32725 -4.10067 37094 ft 433 kts 189°
2026-04-30 12:45 43.26718 -4.10729 37099 ft 432 kts 189°
2026-04-30 12:45 43.20713 -4.11397 37104 ft 432 kts 189°
2026-04-30 12:46 43.14714 -4.12061 37086 ft 432 kts 189°
2026-04-30 12:46 43.08721 -4.12727 37095 ft 431 kts 189°
2026-04-30 12:47 43.02748 -4.13388 37098 ft 431 kts 189°
2026-04-30 12:47 42.96771 -4.14042 37100 ft 431 kts 189°
2026-04-30 12:48 42.90801 -4.14693 37094 ft 430 kts 189°
2026-04-30 12:48 42.84836 -4.15344 37101 ft 430 kts 189°
2026-04-30 12:49 42.78872 -4.15999 37101 ft 430 kts 189°
2026-04-30 12:49 42.72948 -4.16648 37102 ft 430 kts 189°
2026-04-30 12:50 42.66986 -4.17298 37107 ft 430 kts 189°
2026-04-30 12:50 42.61032 -4.17936 37101 ft 429 kts 189°
2026-04-30 12:51 42.55077 -4.18581 37106 ft 429 kts 189°
2026-04-30 12:51 42.49124 -4.19235 37103 ft 428 kts 189°
2026-04-30 12:52 42.43181 -4.19884 37110 ft 428 kts 189°
2026-04-30 12:52 42.37255 -4.20526 37120 ft 427 kts 189°
2026-04-30 12:53 42.31322 -4.21159 37112 ft 427 kts 189°
2026-04-30 12:53 42.25437 -4.21790 37116 ft 426 kts 189°
2026-04-30 12:54 42.19524 -4.22423 37123 ft 426 kts 189°
2026-04-30 12:54 42.13611 -4.23058 37118 ft 426 kts 189°
2026-04-30 12:55 42.07704 -4.23695 37115 ft 425 kts 189°
2026-04-30 12:55 42.01808 -4.24318 37123 ft 425 kts 189°
2026-04-30 12:56 41.95915 -4.24947 37121 ft 424 kts 189°
2026-04-30 12:56 41.90031 -4.25566 37110 ft 424 kts 189°
2026-04-30 12:57 41.84152 -4.26182 37107 ft 424 kts 189°
2026-04-30 12:57 41.78276 -4.26807 37110 ft 423 kts 189°
2026-04-30 12:58 41.72404 -4.27435 37116 ft 423 kts 189°
2026-04-30 12:58 41.66529 -4.28056 37107 ft 423 kts 188°
2026-04-30 12:59 41.60663 -4.28667 37112 ft 423 kts 189°
2026-04-30 12:59 41.54842 -4.29276 37116 ft 422 kts 188°
2026-04-30 13:00 41.48984 -4.29884 37119 ft 422 kts 189°
2026-04-30 13:00 41.43131 -4.30495 37108 ft 421 kts 188°
2026-04-30 13:01 41.37298 -4.31109 37111 ft 420 kts 188°
2026-04-30 13:01 41.31467 -4.31731 37111 ft 420 kts 188°
2026-04-30 13:02 41.25634 -4.32339 37102 ft 420 kts 188°
2026-04-30 13:02 41.19812 -4.32942 37105 ft 419 kts 188°
2026-04-30 13:03 41.13997 -4.33541 37105 ft 419 kts 188°
2026-04-30 13:03 41.08185 -4.34144 37104 ft 419 kts 188°
2026-04-30 13:04 41.02374 -4.34751 37095 ft 419 kts 188°
2026-04-30 13:04 40.96565 -4.35347 37106 ft 418 kts 188°
2026-04-30 13:05 40.90767 -4.35942 37109 ft 418 kts 188°
2026-04-30 13:06 40.82086 -4.36835 37103 ft 417 kts 187°
2026-04-30 13:06 40.76337 -4.37419 37109 ft 417 kts 187°
2026-04-30 13:07 40.70557 -4.38010 37112 ft 417 kts 187°
2026-04-30 13:07 40.64778 -4.38603 37111 ft 416 kts 187°
2026-04-30 13:08 40.59007 -4.39194 37109 ft 416 kts 187°
2026-04-30 13:08 40.53233 -4.39782 37108 ft 416 kts 187°
2026-04-30 13:09 40.47458 -4.40364 37108 ft 416 kts 187°
2026-04-30 13:09 40.41677 -4.40952 37108 ft 416 kts 187°
2026-04-30 13:10 40.35905 -4.41541 37101 ft 416 kts 187°
2026-04-30 13:10 40.30136 -4.42133 37105 ft 416 kts 187°
2026-04-30 13:11 40.24370 -4.42718 37107 ft 415 kts 187°
2026-04-30 13:11 40.18611 -4.43288 37107 ft 415 kts 187°
2026-04-30 13:12 40.12852 -4.43865 37100 ft 415 kts 187°
2026-04-30 13:12 40.07105 -4.44452 37099 ft 414 kts 187°
2026-04-30 13:13 39.98492 -4.45317 37093 ft 414 kts 187°
2026-04-30 13:14 39.89921 -4.46164 37084 ft 414 kts 186°
2026-04-30 13:14 39.81312 -4.47026 37091 ft 413 kts 186°
2026-04-30 13:15 39.72707 -4.47892 37090 ft 413 kts 186°
2026-04-30 13:16 39.66980 -4.48459 37084 ft 413 kts 186°
2026-04-30 13:16 39.61255 -4.49022 37089 ft 413 kts 186°
2026-04-30 13:17 39.52670 -4.49870 37085 ft 412 kts 186°
2026-04-30 13:18 39.44089 -4.50727 37083 ft 412 kts 186°
2026-04-30 13:18 39.35518 -4.51581 37083 ft 412 kts 186°
2026-04-30 13:19 39.29807 -4.52134 37080 ft 412 kts 186°
2026-04-30 13:19 39.24092 -4.52687 37072 ft 412 kts 186°
2026-04-30 13:20 39.18376 -4.53244 37076 ft 412 kts 186°
2026-04-30 13:20 39.12663 -4.53803 37076 ft 412 kts 186°
2026-04-30 13:21 39.06947 -4.54365 37080 ft 412 kts 186°
2026-04-30 13:22 38.98364 -4.55191 37076 ft 412 kts 185°
2026-04-30 13:22 38.89810 -4.56274 37077 ft 412 kts 189°
2026-04-30 13:23 38.81351 -4.58184 37092 ft 412 kts 191°
2026-04-30 13:24 38.70037 -4.60623 37082 ft 412 kts 190°
2026-04-30 13:25 38.58740 -4.62932 37079 ft 413 kts 190°
2026-04-30 13:26 38.44581 -4.65867 37074 ft 412 kts 190°
2026-04-30 13:28 38.30441 -4.68774 37075 ft 412 kts 190°
2026-04-30 13:28 38.21959 -4.70509 37072 ft 412 kts 190°
2026-04-30 13:29 38.10645 -4.72827 37071 ft 412 kts 190°
2026-04-30 13:31 37.96537 -4.75699 37070 ft 412 kts 190°
2026-04-30 13:32 37.82404 -4.78563 37065 ft 411 kts 190°
2026-04-30 13:33 37.72077 -4.80659 37068 ft 410 kts 190°
2026-04-30 13:34 37.63633 -4.82365 37067 ft 409 kts 190°
2026-04-30 13:35 37.52397 -4.84624 37059 ft 409 kts 191°
2026-04-30 13:36 37.41160 -4.86873 36953 ft 410 kts 191°
2026-04-30 13:36 37.38350 -4.87441 36687 ft 408 kts 191°
2026-04-30 13:36 37.32751 -4.88570 35612 ft 408 kts 191°
2026-04-30 13:37 37.29944 -4.89130 34873 ft 409 kts 191°
2026-04-30 13:37 37.24418 -4.90232 33879 ft 400 kts 191°
2026-04-30 13:38 37.18980 -4.91313 32857 ft 391 kts 191°
2026-04-30 13:38 37.16312 -4.91842 32360 ft 387 kts 191°
2026-04-30 13:38 37.11042 -4.92889 31391 ft 379 kts 192°
2026-04-30 13:39 37.05851 -4.93865 30394 ft 376 kts 187°
2026-04-30 13:39 37.00616 -4.93751 29348 ft 374 kts 181°
2026-04-30 13:40 36.98028 -4.93608 28853 ft 371 kts 181°
2026-04-30 13:40 36.95462 -4.93465 28389 ft 367 kts 181°
2026-04-30 13:40 36.92913 -4.93329 27923 ft 365 kts 181°
2026-04-30 13:40 36.90417 -4.93200 27478 ft 362 kts 181°
2026-04-30 13:41 36.87914 -4.93074 27027 ft 359 kts 181°
2026-04-30 13:41 36.85432 -4.92949 26603 ft 355 kts 181°
2026-04-30 13:41 36.82974 -4.92824 26185 ft 352 kts 181°
2026-04-30 13:41 36.80536 -4.92701 25747 ft 350 kts 181°
2026-04-30 13:42 36.78110 -4.92577 25309 ft 348 kts 181°
2026-04-30 13:42 36.75698 -4.92452 24865 ft 346 kts 181°
2026-04-30 13:42 36.70907 -4.92205 23967 ft 344 kts 180°
2026-04-30 13:43 36.68515 -4.92083 23479 ft 343 kts 180°
2026-04-30 13:43 36.66142 -4.91960 22984 ft 341 kts 180°
2026-04-30 13:43 36.63778 -4.91838 22519 ft 339 kts 180°
2026-04-30 13:43 36.61425 -4.91717 22068 ft 338 kts 180°
2026-04-30 13:44 36.59073 -4.91599 21602 ft 338 kts 180°
2026-04-30 13:44 36.56728 -4.91481 21150 ft 337 kts 180°
2026-04-30 13:44 36.54389 -4.91364 20696 ft 336 kts 179°
2026-04-30 13:44 36.52054 -4.91246 20241 ft 336 kts 179°
2026-04-30 13:45 36.47393 -4.91004 19352 ft 334 kts 179°
2026-04-30 13:45 36.45070 -4.90884 18891 ft 334 kts 179°
2026-04-30 13:45 36.42749 -4.90766 18452 ft 334 kts 178°
2026-04-30 13:46 36.40424 -4.90648 17961 ft 334 kts 178°
2026-04-30 13:46 36.38113 -4.90527 17520 ft 332 kts 179°
2026-04-30 13:46 36.35847 -4.90410 17409 ft 320 kts 179°
2026-04-30 13:46 36.33625 -4.90296 16963 ft 320 kts 179°
2026-04-30 13:47 36.31401 -4.90181 16550 ft 319 kts 179°
2026-04-30 13:47 36.29217 -4.89841 16150 ft 316 kts 164°
2026-04-30 13:47 36.27301 -4.88562 15483 ft 315 kts 141°
2026-04-30 13:47 36.25746 -4.86650 14783 ft 314 kts 136°
2026-04-30 13:48 36.24273 -4.84668 14132 ft 311 kts 135°
2026-04-30 13:48 36.22828 -4.82701 13456 ft 307 kts 135°
2026-04-30 13:48 36.21398 -4.80754 12737 ft 304 kts 135°
2026-04-30 13:48 36.19979 -4.78827 12020 ft 301 kts 135°
2026-04-30 13:49 36.18554 -4.76948 11397 ft 295 kts 141°
2026-04-30 13:49 36.16826 -4.75794 10899 ft 278 kts 171°
2026-04-30 13:49 36.14974 -4.75978 10310 ft 272 kts 203°
2026-04-30 13:49 36.13515 -4.77447 9637 ft 272 kts 237°
2026-04-30 13:50 36.12999 -4.79646 8925 ft 276 kts 270°
2026-04-30 13:50 36.13744 -4.84336 7961 ft 283 kts 281°
2026-04-30 13:50 36.14176 -4.86706 7620 ft 281 kts 281°
2026-04-30 13:51 36.14604 -4.89047 7265 ft 278 kts 281°
2026-04-30 13:51 36.15037 -4.91374 6843 ft 277 kts 279°
2026-04-30 13:51 36.15325 -4.93717 6443 ft 274 kts 275°
2026-04-30 13:51 36.15515 -4.96049 6072 ft 271 kts 273°
2026-04-30 13:52 36.15656 -4.98340 5712 ft 261 kts 272°
2026-04-30 13:52 36.15775 -5.00518 5372 ft 247 kts 272°
2026-04-30 13:52 36.15889 -5.02616 5044 ft 243 kts 273°
2026-04-30 13:52 36.16008 -5.04695 4716 ft 241 kts 273°
2026-04-30 13:53 36.16081 -5.06756 4388 ft 238 kts 269°
2026-04-30 13:53 36.16047 -5.08791 4070 ft 235 kts 267°
2026-04-30 13:53 36.15977 -5.10800 3768 ft 232 kts 267°
2026-04-30 13:53 36.15900 -5.12787 3445 ft 230 kts 266°
2026-04-30 13:54 36.15826 -5.14753 3130 ft 228 kts 267°
2026-04-30 13:54 36.15755 -5.16704 2825 ft 226 kts 267°
2026-04-30 13:54 36.15684 -5.18638 2520 ft 224 kts 267°
2026-04-30 13:54 36.15614 -5.20558 2213 ft 220 kts 267°
2026-04-30 13:55 36.15550 -5.22372 1921 ft 207 kts 267°
2026-04-30 13:55 36.15489 -5.24124 1644 ft 196 kts 267°
2026-04-30 13:55 36.15422 -5.25754 1429 ft 185 kts 266°
2026-04-30 13:55 36.15350 -5.27243 1373 ft 163 kts 266°
2026-04-30 13:56 36.15304 -5.28565 1275 ft 147 kts 268°
2026-04-30 13:56 36.15307 -5.29804 991 ft 142 kts 270°
2026-04-30 13:56 36.15284 -5.31008 709 ft 138 kts 263°
2026-04-30 13:56 36.15225 -5.32186 429 ft 136 kts 265°
2026-04-30 13:57 36.15178 -5.33346 160 ft 134 kts 264°
2026-04-30 13:57 36.15136 -5.34478 18 ft 123 kts 265°
2026-04-30 13:57 36.15108 -5.35247 20 ft 59 kts 267°
2026-04-30 13:57 36.15089 -5.35704 17 ft 43 kts 268°
2026-04-30 13:58 36.15060 -5.35876 18 ft 8 kts 235°
2026-04-30 13:58 36.15087 -5.35810 17 ft 9 kts 87°
2026-04-30 13:58 36.15091 -5.35717 17 ft 14 kts 87°
2026-04-30 13:59 36.15097 -5.35562 18 ft 22 kts 87°
2026-04-30 13:59 36.15105 -5.35344 20 ft 29 kts 87°
2026-04-30 13:59 36.15114 -5.35055 19 ft 36 kts 88°
2026-04-30 13:59 36.15121 -5.34840 19 ft 18 kts 87°
2026-04-30 14:00 36.15125 -5.34726 20 ft 9 kts 85°
2026-04-30 14:00 36.15214 -5.34674 19 ft 5 kts 18°
2026-04-30 14:00 36.15248 -5.34672 18 ft 5 kts 356°
2026-04-30 14:01 36.15279 -5.34674 18 ft 4 kts 357°
2026-04-30 14:01 36.15299 -5.34675 18 ft 2 kts 357°
2026-04-30 14:01 36.15303 -5.34676 18 ft 0 kts 357°